#timestamp,LO_Frequency,Hit,StdDev 
1561878015.1,286046999.8,N
1561878035.9,286046998.1,N
1561878055.7,286046998.1,N
1561878075.5,286046998.9,N
1561878095.4,286046998.7,N
1561878115.2,286046999.0,N
1561878135.0,286046998.3,N
1561878135.9,286046998.3,N
1561878155.8,286046998.1,N
1561878175.6,286046998.2,N
1561878195.5,286047002.1,N
1561878215.3,286046999.7,N
1561878235.1,286047002.2,N
1561878255.9,286047002.1,N
1561878275.7,286047004.1,N
1561878295.5,286047001.7,N
1561878315.4,286047004.0,N
1561878335.2,286047001.4,N
1561878355.1,286047002.6,N
1561878356.0,286047002.6,N
1561878375.8,286047002.6,N
1561878395.6,286047001.8,N
1561878415.5,286047004.4,N
1561878435.3,286047001.5,N
1561878455.1,286047004.3,N
1561878475.9,286047001.8,N
1561878495.7,286047002.2,N
1561878515.6,286047001.8,N
1561878535.4,286047001.4,N
1561878555.2,286047003.5,N
1561878575.1,286047004.2,N
1561878576.0,286047004.2,N
1561878595.8,286047004.2,N
1561878615.7,286047003.9,N
1561878635.5,286047003.3,N
1561878655.3,286047006.7,Y
1561878675.2,286047003.9,P
1561878695.0,286047001.4,N
1561878695.9,286047001.4,N
1561878715.8,286047003.1,N
1561878735.6,286047005.2,Y
1561878755.4,286047001.7,P
1561878775.3,286047002.4,P
1561878795.1,286046999.8,N
1561878815.8,286047000.0,N
1561878835.7,286047002.1,N
1561878855.5,286047003.2,N
1561878875.4,286047003.1,N
1561878895.2,286047004.2,Y
1561878915.0,286047002.6,P
1561878915.9,286047002.6,P
1561878935.8,286047002.7,P
1561878955.6,286047000.2,N
1561878975.4,286047000.1,N
1561878995.3,286047000.1,N
1561879015.1,286046998.7,N
1561879035.9,286046997.8,N
1561879055.7,286046997.6,N
1561879075.5,286046996.1,N
1561879095.4,286046995.8,N
1561879115.2,286046993.3,N
1561879135.0,286046996.3,N
1561879135.9,286046996.3,N
1561879155.8,286046996.0,N
1561879175.6,286046996.2,N
1561879195.5,286046993.4,N
1561879215.3,286046996.3,N
1561879235.1,286046993.5,N
1561879255.9,286046994.8,N
1561879275.7,286046992.7,N
1561879295.6,286046993.1,N
1561879315.4,286046990.6,N
1561879335.2,286046992.5,N
1561879355.1,286046994.7,N
1561879356.0,286046994.7,N
1561879375.8,286046992.5,N
1561879395.6,286046992.4,N
1561879415.5,286046994.6,N
1561879435.3,286046994.2,N
1561879455.2,286046991.8,N
1561879475.9,286046991.8,N
1561879495.7,286046994.1,N
1561879515.6,286046993.4,N
1561879535.4,286046995.6,N
1561879555.3,286046996.6,N
1561879575.1,286046996.9,N
1561879576.0,286046996.9,N
1561879595.8,286046996.7,N
1561879615.7,286046997.4,N
1561879635.5,286046994.9,N
1561879655.3,286046993.4,Y
1561879675.2,286046996.6,P
1561879695.0,286046996.8,P
1561879695.9,286046996.8,P
1561879715.8,286046997.8,N
1561879735.6,286046996.2,Y
1561879755.4,286046996.2,P
1561879775.3,286046993.1,P
1561879795.1,286046991.0,P
1561879815.9,286046990.9,Y
1561879835.7,286046994.9,P
1561879855.5,286046997.8,P
1561879875.4,286046995.8,N
1561879895.2,286046997.9,N
1561879915.0,286046995.1,Y
1561879915.9,286046995.1,P
1561879935.8,286046999.6,N
1561879955.6,286046997.4,N
1561879975.5,286046995.9,N
1561879995.3,286046995.3,Y
1561880015.1,286047000.0,P
1561880035.9,286046998.1,N
1561880055.7,286047000.6,N
1561880075.6,286047001.2,N
1561880095.4,286046998.1,N
1561880115.2,286046998.4,N
1561880135.1,286046998.3,N
1561880136.0,286046998.3,N
1561880155.8,286046999.2,N
1561880175.6,286046999.6,N
1561880195.5,286046998.1,N
1561880215.3,286047000.1,N
1561880235.2,286047004.4,Y
1561880255.9,286047005.2,P
1561880275.7,286047005.3,N
1561880295.6,286047002.9,N
1561880315.4,286047002.9,N
1561880335.2,286047005.5,N
1561880355.1,286047006.0,N
1561880356.0,286047006.0,N
1561880375.8,286047002.9,N
1561880395.7,286047003.5,N
1561880415.5,286047003.8,N
1561880435.3,286047004.0,N
1561880455.2,286047004.1,N
1561880475.9,286047005.1,N
1561880495.7,286047010.6,Y
1561880515.6,286047005.7,P
1561880535.4,286047002.8,P
1561880555.3,286047000.9,N
1561880575.1,286046998.9,N
1561880576.0,286046998.9,N
1561880595.8,286046996.7,N
1561880615.7,286046999.3,N
1561880635.5,286047000.6,N
1561880655.3,286047000.0,N
1561880675.2,286046999.0,N
1561880695.0,286046998.3,N
1561880695.9,286046998.3,N
1561880715.8,286047000.6,N
1561880735.6,286046996.2,N
1561880755.4,286046993.0,N
1561880775.3,286046988.7,Y
1561880795.1,286046990.4,P
1561880815.8,286046993.1,N
1561880835.7,286046994.7,N
1561880855.5,286046994.6,N
1561880875.4,286046993.5,N
1561880895.2,286046996.2,N
1561880915.0,286046996.1,N
1561880915.9,286046996.1,N
1561880935.8,286046993.4,N
1561880955.6,286046996.1,N
1561880975.4,286046995.9,N
1561880995.3,286046999.3,N
1561881015.1,286046998.8,N
1561881035.9,286046998.7,N
1561881055.7,286046999.4,N
1561881075.5,286046998.5,N
1561881095.4,286046999.1,N
1561881115.2,286046997.1,N
1561881135.0,286046997.5,N
1561881135.9,286046997.5,N
1561881155.8,286046997.3,N
1561881175.6,286046996.9,N
1561881195.5,286046998.7,N
1561881215.3,286046998.3,N
1561881235.1,286046998.2,N
1561881255.9,286047000.5,N
1561881275.7,286047000.1,N
1561881295.5,286047000.9,N
1561881315.4,286047000.2,N
1561881335.2,286047000.8,N
1561881355.1,286047001.2,N
1561881356.0,286047001.2,N
1561881375.8,286046999.0,N
1561881395.6,286046996.5,N
1561881415.5,286046996.9,N
1561881435.3,286046996.5,N
1561881455.1,286046997.9,N
1561881475.9,286046995.6,N
1561881495.7,286046995.5,N
1561881515.6,286046995.5,N
1561881535.4,286046994.9,N
1561881555.2,286046999.1,N
1561881575.1,286046998.7,N
1561881576.0,286046998.7,N
1561881595.8,286047001.0,N
